Location: Zagreb
(45.8000°N, 16.0000°E)
Time: 15:09:45
(UTC+02:00)

Transit 2A - Pass Details

Date: 11 August 2022
Orbit: 601 x 956 km, 66.7° (Epoch: 25 September)

Event Time Altitude Azimuth Distance (km) Brightness Sun altitude
Rises 21:03:21 0° 327° (NNW) 2,860 10.3 -8.9°
Reaches altitude 10° 21:05:34 10° 328° (NNW) 1,957 9.3 -9.3°
Maximum altitude 21:09:57 82° 57° (ENE) 628 5.5 -9.9°
Enters shadow 21:14:04 13° 145° (SE) 1,867 7.4 -10.5°
Drops below altitude 10° 21:14:30 10° 145° (SE) 2,036 - -10.6°
Sets 21:16:51 0° 147° (SSE) 2,987 - -10.9°
